Flag for Germany Weather past 2 weeks in Neu-Ulm, Bavaria, Germany

Now
32 °F

Passing clouds.


Feels Like: 26 °F
Forecast: 33 / 48 °F
Wind: 6 mph from East

Location: Laupheim Airport


UV Index: 3 (Moderate)

Visibility: N/A


Pressure: 30.24 "Hg

Humidity: 80%

Dew point: 27 °F

Location of Neu-UlmLocation

Historic Weather in Neu-Ulm

°F

Neu-Ulm temperature yesterday

Maximum temperature yesterday: 48 °F (at 2:20 PM)
Minimum temperature yesterday: 28 °F (at 6:20 AM)
Average temperature yesterday: 40 °F

Past Weeks' High & Low Weather Summary

 TemperatureHumidityPressure
High70 °F (Apr 3, 3:20 PM)100% (Apr 11, 5:20 AM)30.33 "Hg (Apr 11, 5:20 AM)
Low28 °F (Apr 16, 6:20 AM)29% (Apr 3, 3:20 PM)29.65 "Hg (Apr 3, 6:20 PM)
Average50 °F66%30.04 "Hg
* Reported Apr 2 6:20 AM — Apr 17 6:20 AM, Neu-Ulm, Weather by CustomWeather, © 2014

Note: Actual official high and low records may vary slightly from our data, if they occured in-between our weather recording intervals... More about our weather records

Advertising

Historic Weather Conditions — Data for Previous 24 hours

 ConditionsComfort  
Time TempWeatherWind HumidityBarometerVisibility
6:20 AM
Apr 17
30 °FPassing clouds.5 mph93%30.24 "HgN/A
5:20 AM32 °FPassing clouds.5 mph87%30.27 "HgN/A
4:20 AM30 °FPassing clouds.5 mph86%30.27 "HgN/A
3:20 AM30 °FChilly.3 mph86%30.30 "HgN/A
2:20 AM34 °FChilly.5 mph87%30.30 "HgN/A
1:20 AM32 °FPassing clouds.5 mph87%30.30 "HgN/A
12:20 AM32 °FPassing clouds.3 mph80%30.30 "HgN/A
11:20 PM
Apr 16
37 °FPassing clouds.5 mph75%30.33 "HgN/A
10:20 PM39 °FPassing clouds.5 mph65%30.33 "HgN/A
9:20 PM41 °FPassing clouds.6 mph61%30.33 "HgN/A
8:20 PM45 °FPassing clouds.6 mph53%30.33 "HgN/A
7:20 PM46 °FScattered clouds.7 mph53%30.30 "HgN/A
6:20 PM48 °FBroken clouds.8 mph50%30.33 "HgN/A
5:20 PM48 °FBroken clouds.9 mph50%30.33 "HgN/A
4:20 PM48 °FBroken clouds.10 mph46%30.33 "HgN/A
3:20 PM46 °FPartly sunny.10 mph50%30.33 "HgN/A
2:20 PM48 °FPartly sunny.9 mph54%30.33 "HgN/A
1:20 PM45 °FPartly sunny.10 mph57%30.33 "HgN/A
12:20 PM43 °FPartly sunny.8 mph61%30.33 "HgN/A
11:20 AM43 °FPartly sunny.7 mph57%30.33 "HgN/A
10:20 AM39 °FScattered clouds.6 mph70%30.33 "HgN/A
9:20 AM36 °FPartly sunny.6 mph87%30.33 "HgN/A
8:20 AM32 °FPartly sunny.1 mph93%30.33 "Hg5 mi
7:20 AM28 °FPassing clouds.3 mph93%30.30 "Hg4 mi
Weather by CustomWeather, © 2014

See weather overview